Location: Boiro
(42.6475°N, 8.8834°W)
Time: 06:12:59
(UTC+02:00)

SL-8 DEB - Pass Details

Date: 09 July 2022
Orbit: 890 x 1013 km, 83.1° (Epoch: 16 August)

Event Time Altitude Azimuth Distance (km) Brightness Sun altitude
Rises 23:56:18 0° 359° (N) 3,578 ? -14.7°
Reaches altitude 10° 23:59:00 10° 7° (N) 2,614 ? -15.0°
Maximum altitude 00:04:29 38° 75° (ENE) 1,347 ? -15.7°
Enters shadow 00:07:27 23° 127° (SE) 1,800 ? -16.0°
